Regional Weather Roundup
Issued by NWS

Home | Current Version | Previous Version | Graphics & Text | Print | Product List | Glossary On
Versions: 1 2 3 4 5 6 7 8 9 10 11 12 13 14 15 16 17 18 19 20 21 22 23 24 25 26 27 28 29 30 31 32 33 34 35 36 37 38 39 40 41 42 43 44 45 46 47 48 49 50
218
ASUS45 KABQ 211101
RWRNM
NEW MEXICO REGIONAL WEATHER ROUNDUP
NATIONAL WEATHER SERVICE ALBUQUERQUE NM
400 AM MST TUE FEB 21 2017

NOTE: "FAIR" MEANS FEW OR NO CLOUDS BELOW 12,000 FEET AGL WITH NO
       SIGNIFICANT WEATHER OR OBSTRUCTIONS TO VISION.

      THIS PRODUCT IS RELEASED AS TWO VERSIONS.  ONE VERSION NEAR
      THE TOP OF THE HOUR CONTAINING PRELIMINARY DATA FROM ALBUQUERQUE
      AND OTHER STATIONS.  A FINAL VERSION WITH ADDITIONAL DATA IS
      ISSUED ABOUT 10 MINUTES AFTER THE HOUR.

NMZ501-503-504-510>518-211200-
NORTHWEST PLATEAU/NORTHCENTRAL MOUNTAINS

CITY           SKY/WX    TMP DP  RH WIND       PRES   REMARKS
FARMINGTON     FAIR      33  30  88 E7        30.35S WCI  27
LOS ALAMOS     MOCLDY    37  26  64 CALM      30.36S
SANTA FE       FAIR      39  27  62 N13       30.32R WCI  31
TAOS           FAIR      30  18  59 E6        30.36S WCI  24
ANGEL FIRE     FAIR      36  25  64 W30G38    30.30R WCI  22

$$
NMZ402-403-502-505>509-211200-
WESTCENTRAL MOUNTAINS/SOUTHWEST MOUNTAINS

CITY           SKY/WX    TMP DP  RH WIND       PRES   REMARKS
GALLUP         FAIR      25  23  92 CALM      30.40S
GRANTS         FAIR      29  26  89 NW8G18    30.40F WCI  21
SILVER CITY    FAIR      41  36  82 N10       30.31F

$$
NMZ407-409-411-412-211200-
SOUTHERN DESERTS

CITY           SKY/WX    TMP DP  RH WIND       PRES   REMARKS
DEMING         FAIR      41  36  82 SW8       30.29S
LAS CRUCES     FAIR      39  34  81 NW7       30.28S WCI  34
HOLLOMAN AFB   FAIR      39  27  61 W8        30.29S WCI  34
ALAMOGORDO     FAIR      48  27  43 NE9       30.26S
T OR C         FAIR      47  31  53 NW6       30.28F

$$
NMZ519>523-211200-
CENTRAL VALLEYS/CENTRAL HIGHLANDS

CITY           SKY/WX    TMP DP  RH WIND       PRES   REMARKS
ALBUQUERQUE    FAIR      42  31  64 NW6       30.34S
DOUBLE EAGLE   FAIR      33  29  83 NW5       30.35S WCI  29
MORIARTY ARPT  FAIR      43  32  64 NW10      30.31R
CLINES CORNERS FAIR      38  26  62 NW26G32   30.26  WCI  26
BELEN          FAIR      35  30  79 N7        30.33F WCI  30
SOCORRO        FAIR      40  30  67 CALM      30.31S

$$
NMZ524>526-539-540-211200-
SOUTHCENTRAL MOUNTAINS

CITY           SKY/WX    TMP DP  RH WIND       PRES   REMARKS
RUIDOSO        NOT AVBL

$$
NMZ527>531-211200-
NORTHEAST HIGHLANDS/NORTHEAST PLAINS

CITY           SKY/WX    TMP DP  RH WIND       PRES   REMARKS
LAS VEGAS      FAIR      25  14  63 N8        30.19F WCI  16
RATON          NOT AVBL
CLAYTON        FAIR      40  18  41 W9        30.10S WCI  34

$$
NMZ532>537-211200-
EASTCENTRAL PLAINS

CITY           SKY/WX    TMP DP  RH WIND       PRES   REMARKS
TUCUMCARI      FAIR      36  21  54 SW5       30.09F WCI  32
CANNON AFB     FAIR      41  28  59 NW7       30.12S
CLOVIS AIRPORT FAIR      30  21  69 W8        30.11S WCI  23

$$
NMZ028-029-538-211200-
SOUTHEAST PLAINS

CITY           SKY/WX    TMP DP  RH WIND       PRES   REMARKS
ROSWELL        FAIR      40  24  53 CALM        N/A
ARTESIA        FAIR      41  27  56 NW5       30.17S
CARLSBAD       FAIR      42  28  57 E7        30.16R
HOBBS          FAIR      37  25  60 W6        30.16F WCI  33


$$




USA.gov is the U.S. government's official web portal to all federal, state and local government web resources and services.